Other Public Products
Issued by NWS Grand Forks, ND

Home | Current Version | Previous Version | Graphics & Text | Print | Product List | Glossary On
Versions: 1 2 3 4 5 6 7 8 9 10 11 12 13 14 15 16 17 18 19 20 21 22 23 24 25 26 27 28 29 30 31 32 33 34 35 36 37 38 39 40 41 42 43 44 45 46 47 48 49 50
738
FPUS83 KFGF 300831
OPUFGF
PRAIRIE TO PINES WEATHER ROUNDUP
NATIONAL WEATHER SERVICE EASTERN NORTH DAKOTA/GRAND FORKS ND
300 AM CDT MON MAY 30 2016

 **SATELLITE DATA USED TO AUGMENT SKY COVER AT AUTOMATED STATIONS**
 *****  WEATHER ACROSS EASTERN NORTH DAKOTA  *****

CITY           SKY/WX    TMP DP  RH WIND       PRES   REMARKS
GRAND FORKS    CLEAR     50  45  83 CALM      29.91F
GRAND FORKS AF CLEAR     53  47  82 SW3       29.91F
GRAND CITY NWS   N/A     52 N/A N/A SW3         N/A
BUXTON           N/A     59  49  70 SW5         N/A
DEVILS LAKE    MOCLDY    53  46  77 S3        29.93F
FARGO          MOCLDY    62  48  60 SE6       29.93F
WAHPETON ARPT  MOSUNNY   54  43  66 CALM      29.95F
$$

 *****  WEATHER ACROSS CENTRAL AND WESTERN NORTH DAKOTA  *****

CITY           SKY/WX    TMP DP  RH WIND       PRES   REMARKS
JAMESTOWN      CLEAR     52  48  86 CALM      29.93F
BISMARCK       CLEAR     55  51  86 E3        29.93F
MINOT          CLEAR     56  46  69 S3        29.91S
MINOT AFB      CLEAR     51  45  80 SW2       29.90S
GARRISON         N/A     51  46  83 E3        29.92S
WILLISTON      CLEAR     44  40  85 CALM      29.91F
DICKINSON      CLEAR     50  46  86 S8        29.91F
HETTINGER      CLEAR     53  47  79 CALM      29.95F
$$

 *****  OTHER OBSERVATIONS NORTHEAST NORTH DAKOTA  *****

CITY           SKY/WX    TMP DP  RH WIND       PRES   REMARKS
WALHALLA       FAIR      50  46  87 CALM      29.91S
LANGDON        FAIR      50  48  93 S9        29.93R
CAVALIER       FAIR      54  48  82 CALM      29.91S
GRAFTON        FAIR      55  52  88 SW5       29.92S
CANDO          FAIR      50  46  87 S3        29.94S
FORT TOTTEN      N/A     56  42  58 SE3       29.95S
ROLLA          FAIR      52  41  66 SW8       29.93S
RUGBY          FAIR      55  45  67 S8        29.91F
 ***** THE ABOVE OBSERVATIONS ARE NON NWS ARE NOT QUALITY
        CONTROLLED AND MAY MIS-REPORT RAIN FOR SNOW...
$$

 *****  OTHER OBSERVATIONS SOUTHEAST NORTH DAKOTA *****

CITY           SKY/WX    TMP DP  RH WIND       PRES   REMARKS
COOPERSTOWN    NOT AVBL
VALLEY CITY    FAIR      54  52  94 CALM      29.96F
OAKES            N/A    N/A N/A N/A MISG        N/A
GWINNER        FAIR      55  52  88 S7        29.95S
SHEYENNE NWR     N/A     54  48  80 CALM      29.95
BUFFALO          N/A     59  44  58 S5          N/A
WYNDMERE         N/A     55  46  71 S1          N/A
 ***** THE ABOVE OBSERVATIONS ARE NON NWS ARE NOT QUALITY
       CONTROLLED AND MAY MIS-REPORT RAIN FOR SNOW...
$$

  *****  WEATHER ACROSS NORTHERN MINNESOTA  *****

CITY           SKY/WX    TMP DP  RH WIND       PRES   REMARKS
FLAG ISLAND    CLEAR     55  54  94 CALM      29.91R
WARROAD        CLEAR     50  46  87 CALM      29.93S
ROSEAU         CLEAR     52  46  82 CALM      29.92S
HALLOCK        CLEAR     52  50  93 S6        29.91S
THF RVR FALLS  CLEAR     54  46  76 S7        29.94F
HALSTAD        NOT AVBL
FOSSTON        CLEAR     48  48 100 S5        29.95F
BAUDETTE       CLEAR     47  45  93 SW3       29.92R
WASKISH        CLEAR     48  48 100 CALM      29.94S
CROOKSTON      CLEAR     54  48  82 SE5       29.93F
$$
  *****  WEATHER ACROSS CENTRAL AND WEST MINNESOTA  *****

CITY           SKY/WX    TMP DP  RH WIND       PRES   REMARKS
BEMIDJI        FOG       46  45  98 CALM      29.96S VSB 1/2
PARK RAPIDS    CLEAR     53  48  83 CALM      29.96F
WADENA         PTCLDY    48  46  93 CALM      29.97F
DETROIT LAKES  CLOUDY    55  52  88 S3        29.97F
MOORHEAD       MOCLDY    59  50  72 S5        29.95S
FERGUS FALLS   PTCLDY    57  50  77 E3        29.94S
ELBOW LAKE     FAIR      57  48  72 E5        29.97S
MORRIS MN      CLEAR     54  46  76 SE6       29.95F
STAPLES        CLEAR     48  46  93 CALM      29.98S
WHEATON        CLEAR     57  48  72 CALM      29.97S
$$
  *****  WEATHER ELSEWHERE ACROSS MINNESOTA  *****

CITY           SKY/WX    TMP DP  RH WIND       PRES   REMARKS
DULUTH         CLEAR     51  48  89 W9        29.95S
INTRNTL FALLS  CLEAR     46  45  96 W5        29.91R
ELY            CLEAR     52  50  93 SW3       29.92S
CLOQUET        CLEAR     54  48  82 W6        29.96S
BRAINERD       CLEAR     50  49  96 SW5       29.98S
HIBBING        CLEAR     42  41  96 CALM      29.95R FOG
ALEXANDRIA     CLEAR     55  50  83 S3        29.99S
SAINT CLOUD    CLEAR     51  51 100 CALM      29.98S FOG
MINNEAPOLIS    CLEAR     63  57  81 CALM      29.99S
$$

  *****  WEATHER ACROSS SOUTH DAKOTA  *****

CITY           SKY/WX    TMP DP  RH WIND       PRES   REMARKS
SIOUX FALLS    CLOUDY    59  55  87 W5        30.01R
BROOKINGS      CLOUDY    58  52  80 SE5       29.99F
WATERTOWN      CLOUDY    58  50  75 S6        29.99S
HURON          CLOUDY    62  51  67 S8        29.97R
SISSETON         N/A     54  46  74 S3        29.95S
ABERDEEN       CLEAR     52  48  86 SE6       29.96S
MITCHELL       LGT RAIN  66  57  72 W9        30.02R
PIERRE         PTCLDY    62  58  86 SE12      29.92F
MOBRIDGE       CLEAR     57  53  86 SE7       29.91F
RAPID CITY     CLEAR     50  49  96 W3        29.94F
$$

  *****  SOME WEATHER IN NEARBY STATES *****

CITY           SKY/WX    TMP DP  RH WIND       PRES   REMARKS
GLASGOW MT     MOCLDY    55  44  66 E9        29.87F
GREAT FALLS MT MOCLDY    49  43  80 SW9       29.97S
CHEYENNE WY    PTCLDY    47  40  76 W9        30.11F
SCOTTSBLUFF NE MOCLDY    59  50  72 SE10      30.02F
OMAHA NE       CLOUDY    69  60  73 SE6       29.99S
DES MOINES IA  CLOUDY    70  59  68 CALM      30.00S
DAVENPORT IA   CLOUDY    66  57  72 SW5       30.01S
CHICAGO IL     PTCLDY    66  57  72 W6        30.00S
EAU CLAIRE WI  CLEAR     58  56  93 SW5       29.98R
LA CROSSE WI   CLEAR     62  58  86 S3        29.99R
$$

  *****  SOME NATIONAL WEATHER *****

CITY           SKY/WX    TMP DP  RH WIND       PRES   REMARKS
LA GUARDIA NY  HVY RAIN  69  69 100 CALM      29.98F FOG
RALEIGH NC     FOG       66  65  96 NE6       30.00S VSB 1/2
ATLANTA GA     MOCLDY    69  62  78 SW5       30.03S
NEW ORLEANS LA PTCLDY    75  71  87 SW5       30.02F
OKLAHOMA CITY  CLOUDY    67  62  84 E3        30.02F
ALBUQUERQUE NM MOCLDY    64  16  15 SE3       30.08S
SALT LAKE CITY CLOUDY    63  43  48 NE16      30.08F
LOS ANGELES CA MOCLDY    59  54  83 W9        30.01S
BOISE ID       CLEAR     59  41  51 W10       30.03R
SEATTLE WA     CLEAR     53  43  68 NE10      30.27R
$$

*** WEATHER ACROSS MANITOBA...SASKATCHEWAN AND ONTARIO ***
                ***ONTARIO***

CITY           SKY/WX    TMP DP  RH WIND       PRES   REMARKS
GERALDTON      DRIZZLE   50  50 100 W5        29.75S FOG
THUNDER BAY    MOCLDY    57  54  88 W10       29.82S
SIOUX LOOKOUT  PTCLDY    52  50  93 NW8       29.84R
TORONTO        PTCLDY    68  59  73 W9        29.89S
BIG TROUT LK   CLOUDY    39  32  75 NE7       29.90R
PICKLE LAKE    NOT AVBL
DRYDEN         CLOUDY    54  52  94 W7        29.87R
KENORA         FOG       50  50 100 W6        29.91R VSB 1/2
$$
                *** MANITOBA***

CITY           SKY/WX    TMP DP  RH WIND       PRES   REMARKS
BRANDON        CLEAR     48  46  93 E2        29.89R
DAUPHIN        MOCLDY    45  45 100 W6        29.88S
ISLAND LAKE    LGT RAIN  45  45 100 CALM      29.95S
PILOT MOUND      N/A     50  45  81 E5          N/A
THE PAS        LGT RAIN  50  48  93 N6        29.92S
THOMPSON       LGT RAIN  45  43  93 NE9       30.00R
WINNIPEG       CLEAR     52  50  93 E5        29.91R
LYNN LAKE      CLOUDY    43  41  93 E12       30.02S FOG
CHURCHILL      CLOUDY    27  25  93 NE10      30.21S FOG     WCI  17
GILLAM         MOCLDY    32  28  86 NE10G17   30.07R WCI  24
$$
                ***SASKATCHEWAN***

CITY           SKY/WX    TMP DP  RH WIND       PRES   REMARKS
ESTEVAN        NOT AVBL
KINDERSLEY     MOCLDY    54  46  76 E17       29.83F
LLOYDMINSTER   RAIN      48  48 100 NW6       29.95R FOG
PRINCE ALBERT  PTCLDY    45  41  87 NE3       29.94R
REGINA         PTCLDY    50  43  76 SE6       29.87F
YORKTON        CLEAR     46  45  93 N7        29.88R   C1F1C2F2C3F3C4F4C5F5C6F6C7F7C8F8C9F9CaFaCbFbCcFcCdFdCe!



USA.gov is the U.S. government's official web portal to all federal, state and local government web resources and services.